EW8926 Weather Reports


Display with metric or nautical units.
time (UTC)temp
F
wind
direction
speed
MPH
gust
MPH
rain 1hr
in
rain 24hr
in
rain mn
in
humidity
%
barometer
mb
20260508085104 59 98 3.0 3.0 0.00 0.00 0.00 83 1017.1
20260508084604 59 303 3.0 5.0 0.00 0.00 0.00 82 1017.1
20260508084105 59 322 2.0 6.0 0.00 0.00 0.00 82 1017.1
20260508083604 59 326 2.0 6.0 0.00 0.00 0.00 84 1017.1
20260508083105 59 312 2.0 6.0 0.00 0.00 0.00 83 1017.1
20260508082604 59 1 2.0 5.0 0.00 0.00 0.00 84 1017.0
20260508082105 59 328 2.0 6.0 0.00 0.00 0.00 83 1017.0
20260508081605 59 323 2.0 5.0 0.00 0.00 0.00 83 1017.0
20260508080604 59 311 2.0 5.0 0.00 0.00 0.00 83 1016.9
20260508075605 58 314 2.0 3.0 0.00 0.00 0.00 82 1016.8
20260508075119 59 314 2.0 5.0 0.00 0.00 0.00 82 1016.8
20260508074604 59 325 2.0 5.0 0.00 0.00 0.00 82 1016.8
20260508074105 59 325 1.0 5.0 0.00 0.00 0.00 83 1016.8
20260508073604 58 276 1.0 5.0 0.00 0.00 0.00 84 1016.8
20260508073105 58 307 2.0 3.0 0.00 0.00 0.00 85 1016.8
20260508072611 57 314 2.0 3.0 0.00 0.00 0.00 85 1016.7
20260508072105 57 314 1.0 5.0 0.00 0.00 0.00 86 1016.7
20260508071604 57 312 1.0 2.0 0.00 0.00 0.00 86 1016.7
20260508071104 56 312 2.0 5.0 0.00 0.00 0.00 86 1016.7
20260508070605 56 312 2.0 2.0 0.00 0.00 0.00 88 1016.7
20260508065604 56 256 2.0 3.0 0.00 0.00 0.00 88 1016.6
20260508065104 55 291 2.0 6.0 0.00 0.00 0.00 88 1016.6
20260508064605 55 180 2.0 3.0 0.00 0.00 0.00 89 1016.6
20260508064104 54 313 2.0 5.0 0.00 0.00 0.00 90 1016.5
20260508063604 54 314 2.0 5.0 0.00 0.00 0.00 90 1016.5
20260508063106 54 303 1.0 5.0 0.00 0.00 0.00 90 1016.5
20260508062604 53 310 0.0 6.0 0.00 0.00 0.00 90 1016.4
20260508062104 53 132 0.0 5.0 0.00 0.00 0.00 92 1016.4
20260508061604 52 130 0.0 0.0 0.00 0.00 0.00 93 1016.4
20260508061111 52 130 1.0 2.0 0.00 0.00 0.00 93 1016.3
20260508060604 52 130 1.0 2.0 0.00 0.00 0.00 93 1016.2
20260508060104 51 130 1.0 2.0 0.00 0.00 0.00 93 1016.2
20260508055604 51 130 0.0 3.0 0.00 0.00 0.00 93 1016.3
20260508055104 51 130 1.0 2.0 0.00 0.00 0.00 94 1016.3
20260508054604 51 130 1.0 3.0 0.00 0.00 0.00 94 1016.3
20260508054106 50 130 2.0 2.0 0.00 0.00 0.00 94 1016.2
20260508053104 50 129 2.0 2.0 0.00 0.00 0.00 95 1016.2
20260508052604 49 129 2.0 3.0 0.00 0.00 0.00 95 1016.1
20260508051609 49 129 2.0 3.0 0.00 0.00 0.00 95 1016.1
20260508050604 49 130 2.0 3.0 0.00 0.00 0.00 95 1015.8
20260508045604 48 154 1.0 2.0 0.00 0.00 0.00 95 1015.6
20260508045104 48 154 1.0 2.0 0.00 0.00 0.00 94 1015.5
20260508044604 48 154 1.0 2.0 0.00 0.00 0.00 94 1015.5
20260508044104 48 154 1.0 2.0 0.00 0.00 0.00 94 1015.5
20260508043104 48 154 1.0 2.0 0.00 0.00 0.00 94 1015.5
20260508042604 48 154 0.0 3.0 0.00 0.00 0.00 94 1015.4
20260508042106 48 154 2.0 2.0 0.00 0.00 0.00 94 1015.4
20260508041604 48 154 2.0 2.0 0.00 0.00 0.00 94 1015.4
20260508041104 48 154 1.0 2.0 0.00 0.00 0.00 93 1015.3
20260508040104 48 141 1.0 3.0 0.00 0.00 0.00 93 1015.3
20260508035104 49 170 1.0 2.0 0.00 0.00 0.00 94 1015.2
20260508034604 49 170 0.0 2.0 0.00 0.00 0.00 94 1015.2
20260508034104 49 170 0.0 2.0 0.00 0.00 0.00 94 1015.2
20260508033104 49 245 0.0 2.0 0.00 0.00 0.00 94 1015.2
20260508032106 49 245 0.0 1.0 0.00 0.00 0.00 94 1015.2
20260508031604 48 245 0.0 2.0 0.00 0.00 0.00 94 1015.2
20260508031104 48 123 0.0 0.0 0.00 0.00 0.00 93 1015.2
20260508030604 48 123 0.0 0.0 0.00 0.00 0.00 93 1015.2
20260508025604 48 123 0.0 0.0 0.00 0.00 0.00 93 1015.3
20260508025104 48 123 0.0 2.0 0.00 0.00 0.00 93 1015.3
20260508024605 48 123 0.0 0.0 0.00 0.00 0.00 93 1015.3
20260508024104 49 123 0.0 0.0 0.00 0.00 0.00 93 1015.3
20260508023104 49 123 1.0 2.0 0.00 0.00 0.00 93 1015.3
20260508022611 49 123 1.0 2.0 0.00 0.00 0.00 93 1015.3
20260508022104 49 123 2.0 2.0 0.00 0.00 0.00 93 1015.3
20260508021605 49 123 2.0 2.0 0.00 0.00 0.00 93 1015.3
20260508021107 49 123 2.0 2.0 0.00 0.00 0.00 93 1015.3
20260508020607 49 123 2.0 2.0 0.00 0.00 0.00 93 1015.3
20260508020105 49 123 2.0 3.0 0.00 0.00 0.00 92 1015.3
20260508015604 49 123 2.0 2.0 0.00 0.00 0.00 92 1015.2
20260508014604 49 123 2.0 2.0 0.00 0.00 0.00 92 1015.2
20260508014106 49 123 2.0 5.0 0.00 0.00 0.00 92 1015.2
20260508013604 49 130 1.0 3.0 0.00 0.00 0.00 93 1015.2
20260508012104 50 130 1.0 1.0 0.00 0.00 0.00 93 1015.3
20260508011104 50 130 1.0 2.0 0.00 0.00 0.00 93 1015.3
20260508010105 50 131 1.0 1.0 0.00 0.00 0.00 93 1015.3
20260508005604 50 131 1.0 2.0 0.00 0.00 0.00 93 1015.2
20260508004604 50 131 0.0 2.0 0.00 0.00 0.00 93 1015.2
20260508002605 51 131 0.0 2.0 0.00 0.00 0.00 93 1015.4
20260508002106 51 131 0.0 2.0 0.00 0.00 0.00 93 1015.4
20260508001604 51 131 0.0 2.0 0.00 0.00 0.00 93 1015.4
20260508001104 51 131 1.0 0.0 0.00 0.00 0.00 93 1015.5
20260508000604 51 131 1.0 2.0 0.00 0.00 0.00 93 1015.5
20260508000104 51 131 1.0 2.0 0.00 0.00 0.00 93 1015.5
20260507235604 51 131 1.0 2.0 0.00 0.00 0.00 93 1015.5
20260507235104 51 131 1.0 3.0 0.00 0.00 0.00 93 1015.5
20260507234608 51 131 1.0 2.0 0.00 0.00 0.00 93 1015.5
20260507234103 51 131 2.0 2.0 0.00 0.00 0.00 92 1015.6
20260507233604 51 131 2.0 2.0 0.00 0.00 0.00 92 1015.6
20260507233104 51 131 2.0 3.0 0.00 0.00 0.00 92 1015.6
20260507232612 51 131 2.0 3.0 0.00 0.00 0.00 91 1015.6
20260507232104 52 131 1.0 3.0 0.00 0.00 0.00 90 1015.6
20260507231604 52 151 1.0 3.0 0.00 0.00 0.00 92 1015.6
20260507231107 52 151 1.0 2.0 0.00 0.00 0.00 91 1015.6
20260507230104 52 151 2.0 2.0 0.00 0.00 0.00 91 1015.6
20260507225604 52 151 2.0 2.0 0.00 0.00 0.00 91 1015.7
20260507225104 53 151 1.0 2.0 0.00 0.00 0.00 91 1015.7
20260507224607 53 151 1.0 5.0 0.00 0.00 0.00 91 1015.7
20260507223605 53 151 0.0 3.0 0.00 0.00 0.00 91 1015.6
20260507223104 53 151 0.0 2.0 0.00 0.00 0.00 90 1015.6
20260507222109 53 151 2.0 2.0 0.00 0.00 0.00 90 1015.5
20260507221604 53 151 2.0 2.0 0.00 0.00 0.00 89 1015.5
20260507221104 53 151 2.0 2.0 0.00 0.00 0.00 89 1015.4
20260507220604 53 151 2.0 2.0 0.00 0.00 0.00 88 1015.3
20260507220105 54 151 1.0 3.0 0.00 0.00 0.00 87 1015.3
20260507215604 54 155 0.0 2.0 0.00 0.00 0.00 88 1015.2
20260507215104 55 155 0.0 2.0 0.00 0.00 0.00 87 1015.1
20260507214604 55 155 0.0 1.0 0.00 0.00 0.00 87 1015.1
20260507213604 55 155 0.0 2.0 0.00 0.00 0.00 87 1015.2
20260507212604 55 155 0.0 0.0 0.00 0.00 0.00 87 1015.1
20260507212105 55 155 0.0 2.0 0.00 0.00 0.00 87 1015.1
20260507211106 56 155 0.0 2.0 0.00 0.00 0.00 87 1015.1
20260507210604 56 155 0.0 0.0 0.00 0.00 0.00 86 1015.1
20260507210104 56 155 0.0 0.0 0.00 0.00 0.00 86 1015.1
20260507205604 56 155 0.0 0.0 0.00 0.00 0.00 85 1015.2
20260507205104 56 155 0.0 0.0 0.00 0.00 0.00 85 1015.2
20260507204605 56 155 0.0 2.0 0.00 0.00 0.00 85 1015.2
20260507204104 56 155 1.0 2.0 0.00 0.00 0.00 85 1015.1
20260507203603 56 155 1.0 2.0 0.00 0.00 0.00 85 1015.1
20260507203104 56 155 1.0 2.0 0.00 0.00 0.00 85 1015.1
20260507202604 56 155 0.0 2.0 0.00 0.00 0.00 85 1015.0
20260507201604 57 155 0.0 1.0 0.00 0.00 0.00 84 1014.9
20260507201112 57 155 0.0 2.0 0.00 0.00 0.00 84 1014.8
20260507200104 57 155 0.0 2.0 0.00 0.00 0.00 83 1014.7
20260507195604 57 155 0.0 1.0 0.00 0.00 0.00 82 1014.6
20260507195105 57 155 1.0 2.0 0.00 0.00 0.00 82 1014.6
20260507194604 58 155 1.0 2.0 0.00 0.00 0.00 81 1014.6
20260507194105 58 155 2.0 2.0 0.00 0.00 0.00 81 1014.5
20260507193604 58 155 2.0 2.0 0.00 0.00 0.00 80 1014.4
20260507193104 58 155 1.0 2.0 0.00 0.00 0.00 80 1014.4
20260507192604 58 155 0.0 2.0 0.00 0.00 0.00 79 1014.3
20260507192105 59 149 0.0 2.0 0.00 0.00 0.00 79 1014.3
20260507191604 59 143 0.0 2.0 0.00 0.00 0.00 79 1014.3
20260507191119 59 143 1.0 1.0 0.00 0.00 0.00 78 1014.2
20260507190603 59 143 1.0 2.0 0.00 0.00 0.00 77 1014.2
20260507190104 60 143 1.0 2.0 0.00 0.00 0.00 76 1014.2
20260507185604 60 143 0.0 2.0 0.00 0.00 0.00 75 1014.1
20260507185119 60 143 2.0 2.0 0.00 0.00 0.00 75 1014.1
20260507184619 60 143 2.0 2.0 0.00 0.00 0.00 74 1014.1
20260507184104 61 143 2.0 3.0 0.00 0.00 0.00 73 1014.0
20260507183604 61 147 2.0 5.0 0.00 0.00 0.00 72 1013.9
20260507182608 62 138 2.0 5.0 0.00 0.00 0.00 71 1013.9
20260507182105 62 155 2.0 5.0 0.00 0.00 0.00 71 1013.9
20260507181604 62 143 2.0 5.0 0.00 0.00 0.00 70 1013.9
20260507181104 63 138 2.0 5.0 0.00 0.00 0.00 70 1013.9
20260507180620 63 144 2.0 3.0 0.00 0.00 0.00 69 1013.9
20260507175604 63 153 3.0 6.0 0.00 0.00 0.00 69 1013.9
20260507174603 64 138 3.0 7.0 0.00 0.00 0.00 67 1013.9
20260507174104 64 143 3.0 6.0 0.00 0.00 0.00 66 1013.7
20260507173104 65 130 3.0 7.0 0.00 0.00 0.00 65 1013.6
20260507172104 65 141 3.0 5.0 0.00 0.00 0.00 64 1013.4
20260507171604 66 169 3.0 6.0 0.00 0.00 0.00 64 1013.4
20260507171104 66 129 4.0 7.0 0.00 0.00 0.00 65 1013.4
20260507170604 66 141 5.0 6.0 0.00 0.00 0.00 65 1013.4
20260507165604 66 133 3.0 8.0 0.00 0.00 0.00 64 1013.4
20260507165104 66 129 4.0 7.0 0.00 0.00 0.00 62 1013.4
20260507164603 66 139 5.0 6.0 0.00 0.00 0.00 63 1013.4
20260507164107 67 135 5.0 8.0 0.00 0.00 0.00 62 1013.3
20260507163604 67 141 5.0 8.0 0.00 0.00 0.00 61 1013.3
20260507163104 67 158 5.0 9.0 0.00 0.00 0.00 61 1013.3
20260507162107 67 138 5.0 8.0 0.00 0.00 0.00 61 1013.4
20260507161605 68 142 5.0 8.0 0.00 0.00 0.00 61 1013.4
20260507161104 68 139 5.0 8.0 0.00 0.00 0.00 62 1013.4
20260507160605 68 140 5.0 8.0 0.00 0.00 0.00 61 1013.4
20260507160104 68 130 5.0 10.0 0.00 0.00 0.00 62 1013.4
20260507155605 68 131 6.0 10.0 0.00 0.00 0.00 63 1013.3
20260507155105 68 143 6.0 13.0 0.00 0.00 0.00 63 1013.3
20260507154104 69 149 5.0 13.0 0.00 0.00 0.00 61 1013.3
20260507153604 69 132 5.0 12.0 0.00 0.00 0.00 61 1013.3
20260507153104 70 147 3.0 9.0 0.00 0.00 0.00 59 1013.3
20260507152604 70 151 3.0 7.0 0.00 0.00 0.00 58 1013.3
20260507152104 70 137 5.0 8.0 0.00 0.00 0.00 57 1013.3
20260507151603 69 135 5.0 8.0 0.00 0.00 0.00 58 1013.3
20260507151104 69 135 5.0 9.0 0.00 0.00 0.00 58 1013.3
20260507150604 69 135 6.0 9.0 0.00 0.00 0.00 59 1013.3
20260507150104 68 135 6.0 10.0 0.00 0.00 0.00 61 1013.3
20260507145607 68 124 7.0 12.0 0.00 0.00 0.00 62 1013.4
20260507145104 68 125 6.0 13.0 0.00 0.00 0.00 60 1013.4
20260507144103 70 135 5.0 13.0 0.00 0.00 0.00 59 1013.4
20260507143604 71 137 5.0 9.0 0.00 0.00 0.00 56 1013.4
20260507143104 71 152 5.0 8.0 0.00 0.00 0.00 51 1013.4
20260507142606 71 120 5.0 8.0 0.00 0.00 0.00 50 1013.5
20260507142104 71 129 3.0 8.0 0.00 0.00 0.00 50 1013.5
20260507141604 71 129 2.0 10.0 0.00 0.00 0.00 50 1013.5
20260507141103 71 134 3.0 8.0 0.00 0.00 0.00 51 1013.6
20260507140104 71 126 3.0 6.0 0.00 0.00 0.00 52 1013.7
20260507135604 71 113 3.0 9.0 0.00 0.00 0.00 54 1013.7
20260507135104 71 127 4.0 5.0 0.00 0.00 0.00 53 1013.7
20260507134603 71 132 5.0 6.0 0.00 0.00 0.00 53 1013.7
20260507134104 71 133 3.0 7.0 0.00 0.00 0.00 55 1013.8
20260507133105 71 129 3.0 6.0 0.00 0.00 0.00 54 1013.9
20260507132603 70 153 2.0 9.0 0.00 0.00 0.00 56 1014.0
20260507131106 71 302 2.0 10.0 0.00 0.00 0.00 53 1014.0
20260507130605 71 110 2.0 5.0 0.00 0.00 0.00 51 1014.0
20260507125607 71 305 2.0 5.0 0.00 0.00 0.00 53 1014.0
20260507125104 71 139 2.0 5.0 0.00 0.00 0.00 53 1014.0
20260507124604 70 116 2.0 6.0 0.00 0.00 0.00 54 1014.0
20260507124103 70 111 2.0 5.0 0.00 0.00 0.00 57 1014.1
20260507123604 69 227 2.0 5.0 0.00 0.00 0.00 55 1014.2
20260507123105 69 124 2.0 5.0 0.00 0.00 0.00 57 1014.2
20260507122603 69 126 2.0 6.0 0.00 0.00 0.00 54 1014.2
20260507121604 70 127 2.0 6.0 0.00 0.00 0.00 56 1014.2
20260507121104 71 163 2.0 5.0 0.00 0.00 0.00 52 1014.2
20260507120104 70 20 2.0 5.0 0.00 0.00 0.00 53 1014.2
20260507115604 70 357 2.0 6.0 0.00 0.00 0.00 52 1014.4
20260507115104 70 5 2.0 6.0 0.00 0.00 0.00 52 1014.5
20260507114604 70 260 2.0 5.0 0.00 0.00 0.00 51 1014.5
20260507113604 70 339 2.0 6.0 0.00 0.00 0.00 56 1014.6
20260507113104 70 345 2.0 6.0 0.00 0.00 0.00 56 1014.6
20260507112606 70 122 2.0 5.0 0.00 0.00 0.00 56 1014.7
20260507112104 69 166 2.0 5.0 0.00 0.00 0.00 55 1014.7
20260507111605 69 177 2.0 5.0 0.00 0.00 0.00 56 1014.7
20260507111105 69 277 2.0 6.0 0.00 0.00 0.00 57 1014.8
20260507110604 69 123 2.0 7.0 0.00 0.00 0.00 56 1014.8
20260507110104 68 206 2.0 5.0 0.00 0.00 0.00 58 1014.8
20260507105603 68 157 2.0 5.0 0.00 0.00 0.00 58 1014.8
20260507105110 68 156 2.0 5.0 0.00 0.00 0.00 63 1014.8
20260507104604 67 180 2.0 5.0 0.00 0.00 0.00 64 1014.8
20260507104104 66 146 2.0 5.0 0.00 0.00 0.00 66 1014.9
20260507103104 66 284 2.0 5.0 0.00 0.00 0.00 69 1015.0
20260507102103 65 140 2.0 5.0 0.00 0.00 0.00 70 1015.1
20260507101604 65 293 2.0 6.0 0.00 0.00 0.00 73 1015.1
20260507101104 65 315 2.0 5.0 0.00 0.00 0.00 73 1015.1
20260507100604 64 307 2.0 3.0 0.00 0.00 0.00 72 1015.1
20260507100103 65 308 2.0 5.0 0.00 0.00 0.00 72 1015.1
20260507095603 64 340 2.0 5.0 0.00 0.00 0.00 72 1015.2
20260507095105 64 330 2.0 6.0 0.00 0.00 0.00 72 1015.2
20260507094604 64 290 2.0 5.0 0.00 0.00 0.00 72 1015.2
20260507093611 64 327 2.0 3.0 0.00 0.00 0.00 74 1015.1
20260507093103 64 306 2.0 8.0 0.00 0.00 0.00 73 1015.1
20260507092604 63 301 2.0 5.0 0.00 0.00 0.00 74 1015.1
20260507092104 64 313 2.0 5.0 0.00 0.00 0.00 73 1015.1
20260507091603 64 305 2.0 3.0 0.00 0.00 0.00 73 1015.1
20260507091104 64 301 1.0 5.0 0.00 0.00 0.00 73 1015.0
20260507090604 64 84 1.0 2.0 0.00 0.00 0.00 73 1015.0
20260507090104 63 84 2.0 2.0 0.00 0.00 0.00 74 1015.0
20260507085603 63 341 2.0 3.0 0.00 0.00 0.00 76 1015.0